^^
Saratoga-Weather Station Historical Data
 
Daily Summary for January 19, 2019 Units:  Metric    English   Both
Daily Weekly Monthly Yearly Custom
  Current: High: Low: Average:
Temperature: 4.8 °C 4.8 °C 4.3 °C 4.5 °C
Dew Point: 1.1 °C 1.6 °C 0.9 °C 1.3 °C
Humidity: 77% 81% 77% 79%
Wind Speed: 0.0km/h 0.0km/h 0.0km/h 0km/h
Wind Gust: 0.0km/h 0.0km/h - -
WindCalm - -
Pressure: 1015.8 hPa 1016.1 hPa 1015.8 hPa -
Precipitation: 0.0 mm      
Historical Graphs
 
 
Tabular Data for January 19, 2019
Time Temperature Dew Point Pressure Wind Wind Speed Wind Gust Humidity Rainfall Rate (Hourly) solar
00:04 4.3 °C 1.3 °C 1015.8 hPa Calm     81% 0.0 mm 0.00 W/m2
00:09 4.3 °C 1.3 °C 1015.8 hPa Calm     81% 0.0 mm 0.00 W/m2
00:14 4.4 °C 1.3 °C 1016.1 hPa Calm     80% 0.0 mm 0.00 W/m2
00:19 4.6 °C 1.3 °C 1016.1 hPa Calm     79% 0.0 mm 0.00 W/m2
00:24 4.7 °C 1.2 °C 1016.1 hPa Calm     78% 0.0 mm 0.00 W/m2
00:29 4.7 °C 1.4 °C 1016.1 hPa Calm     79% 0.0 mm 0.00 W/m2
00:33 4.6 °C 1.3 °C 1016.1 hPa Calm     79% 0.0 mm 0.00 W/m2
00:39 4.6 °C 1.4 °C 1015.8 hPa Calm     80% 0.0 mm 0.00 W/m2
00:44 4.6 °C 1.4 °C 1015.8 hPa Calm     80% 0.0 mm 0.00 W/m2
00:49 4.6 °C 1.6 °C 1016.1 hPa Calm     81% 0.0 mm 0.00 W/m2
00:54 4.6 °C 1.4 °C 1016.1 hPa Calm     80% 0.0 mm 0.00 W/m2
00:58 4.5 °C 1.4 °C 1015.8 hPa Calm     80% 0.0 mm 0.00 W/m2
01:04 4.5 °C 1.4 °C 1016.1 hPa Calm     80% 0.0 mm 0.00 W/m2
01:09 4.5 °C 1.4 °C 1016.1 hPa Calm     80% 0.0 mm 0.00 W/m2
01:14 4.5 °C 1.4 °C 1016.1 hPa Calm     80% 0.0 mm 0.00 W/m2
01:19 4.5 °C 1.4 °C 1016.1 hPa Calm     80% 0.0 mm 0.00 W/m2
01:24 4.5 °C 1.5 °C 1015.8 hPa Calm     81% 0.0 mm 0.00 W/m2
01:29 4.5 °C 1.4 °C 1016.1 hPa Calm     80% 0.0 mm 0.00 W/m2
01:34 4.5 °C 1.4 °C 1016.1 hPa Calm     80% 0.0 mm 0.00 W/m2
01:39 4.5 °C 1.4 °C 1016.1 hPa Calm     80% 0.0 mm 0.00 W/m2
01:44 4.4 °C 1.3 °C 1016.1 hPa Calm     80% 0.0 mm 0.00 W/m2
01:49 4.5 °C 1.2 °C 1015.8 hPa Calm     79% 0.0 mm 0.00 W/m2
01:54 4.5 °C 1.2 °C 1015.8 hPa Calm     79% 0.0 mm 0.00 W/m2
01:59 4.6 °C 1.3 °C 1015.8 hPa Calm     79% 0.0 mm 0.00 W/m2
02:04 4.6 °C 1.3 °C 1015.8 hPa Calm     79% 0.0 mm 0.00 W/m2
02:09 4.6 °C 1.3 °C 1015.8 hPa Calm     79% 0.0 mm 0.00 W/m2
02:14 4.6 °C 1.1 °C 1015.8 hPa Calm     78% 0.0 mm 0.00 W/m2
02:19 4.6 °C 1.1 °C 1015.8 hPa Calm     78% 0.0 mm 0.00 W/m2
02:24 4.6 °C 1.1 °C 1015.8 hPa Calm     78% 0.0 mm 0.00 W/m2
02:29 4.6 °C 0.9 °C 1015.8 hPa Calm     77% 0.0 mm 0.00 W/m2
02:34 4.6 °C 1.1 °C 1015.8 hPa Calm     78% 0.0 mm 0.00 W/m2
02:39 4.8 °C 1.1 °C 1015.8 hPa Calm     77% 0.0 mm 0.00 W/m2
Griva, Peonia, Kilkis, Greece
Compliments of Weather Underground - 4 mb